Погода в Тонгулахе

Погода в Тонгулахе : погода сейчас, прогноз погоды и архив. Всё, что Вы хотите узнать о погоде в Тонгулахе!

Поиск расширенной информации на нашем сайте:

Другие новости

Новости СМИ2

Главная страница сайта

Новости сайта

03.07.2017

Напоминаем, что на нашем специализированном сайте Метеоцентр.Азия вы можете получить высокодетализированные автоматические прогнозы погоды по пунктам России, СНГ и мира в авиационном формате (включающие направление и скорость ветра, видимость, явления погоды, количество и форму облачности, нижнюю и верхнюю границу облачности).


Погода в Тонгулахе - сегодня

Время (UTC), дата Ветер
(°,м/с) 
Видим.   Явления Облачность Т
(°С)
Тd
(°С)
f(%) Тe
(°С)
Pmin
(гПа)
dP
(гПа)
Po
(мм)
O2
(г/м3)
Тmin Tmax R s Состояние
почвы
03 21.11.17 270 (З) 20000 м  {снег}  10/0 средняя 
[As op]
-24.9 -27.4 80 -25  1007.4  -0.1  735  328           
06 21.11.17 270 (З) 20000 м  {снег}  9/0 средняя 
[Ac As]
-23.2 -25.4 82 -24  1007.6  0.4  735  326           
09 21.11.17 тихо ()   20000 м    10/0 верхняя 
[Cs]
-25.6 -28.1 80 -26  1008.7  0.8  744  332           
21 21.11.17 тихо ()   20000 м  {снег}  10/0 средняя 
[As op]
-19 -21.6 80 -19  1007.9  0.7  736  320           
00 22.11.17 тихо ()   20000 м  {снег}  10/0 средняя 
[As op]
-20 -22.6 80 -20  1009.5  1.4  737  322  -25.8    34  равномерный
сухой снег
100% 
03 22.11.17 тихо ()   20000 м    10/0 средняя 
[As op]
-21.5 -24 80 -22  1010  0.3  737  324           
06 22.11.17 тихо ()   20000 м    10/0 средняя 
[As op]
-23 -25.6 79 -23  1012.3  1.8  739  327           
09 22.11.17 тихо ()   20000 м    10/0 средняя 
[As op]
-26 -28.4 80 -26  1015.4  2.8  741  332           
15 22.11.17 тихо ()   20000 м    10/0 средняя 
[As op]
-33 -35.4 79 -33  1019.1  0.9  743  343           
18 22.11.17 тихо ()   20000 м    10/0 средняя 
[As op]
-34 -35.2 89 -34  1019.5  0.3  743  344           
21 22.11.17 тихо ()   20000 м    10/0 средняя 
[As op]
-28.4 -30.8 80 -28  1019.3  0.5  744  336           
00 23.11.17 тихо ()   20000 м    10/0 средняя, верхняя 
[Ac As|Cs]
-29.8 -32.2 80 -30  1020.2  0.7  744  338  -34.2      35  равномерный
сухой снег
100% 
03 23.11.17 тихо ()   20000 м    10/0 средняя 
[As op]
-24.5 -27 80 -25  1020.6  0.9  745  331           
06 23.11.17 тихо ()   20000 м    10/0 средняя 
[As op]
-24.6 -27.9 74 -25  1021.9  1.2  746  332           
09 23.11.17 тихо ()   20000 м    10/0 средняя 
[As op]
-26.4 -28.9 79 -26  1023.4  1.4  747  335           
12 23.11.17 тихо ()   20000 м    10/0 верхняя 
[Ci fib]
-28.4 -30.8 80 -28  1024.5  0.8  747  338    -24.2       
15 23.11.17 тихо ()   20000 м    10/0 верхняя 
[Ci fib]
-33.3 -35.6 80 -33  1026  747  345           
18 23.11.17 тихо ()   20000 м    10/0 верхняя 
[Ci fib]
-34.1 -36.5 79 -34  1026.3  0.1  747  346           
21 23.11.17 270 (З) 20000 м    10/0 верхняя 
[Cs]
-29.5 -32 79 -33  1024.5  -0.2  747  339           
00 24.11.17 тихо ()   20000 м    10/0 верхняя 
[Cs]
-30.6 -33 79 -31  1024.9  0.2  747  341  -34.2    0.0  33  равномерный
сухой снег
100% 
03 24.11.17 тихо ()   20000 м    5/0 верхняя 
[Ci fib]
-31.2 -33.6 79 -31  1024.2  -0.7  747  342  -31.3         
06 24.11.17 тихо ()   20000 м    6/0 верхняя 
[Ci fib]
-30.6 -33.6 75 -31  1023.6  -0.6  746  341           
09 24.11.17 тихо ()   20000 м    3/0 верхняя 
[Ci fib]
-32 -34.4 79 -32  1022.8  -0.9  746  342           
15 24.11.17 270 (З) 20000 м    ясно 
-33 -35.4 79 -37  1019.1  -2.2  743  343           
18 24.11.17 270 (З) 20000 м    ясно 
-33.6 -35.9 80 -38  1018.1  -1.1  742  343           
Время (UTC), дата Ветер
(°,м/с) 
Видим.   Явления Облачность Т
(°С)
Тd
(°С)
f(%) Тe
(°С)
Pmin
(гПа)
dP
(гПа)
Po
(мм)
O2
(г/м3)
Тmin Tmax R s Состояние
почвы

Для получения пояснительной информации подведите курсор к названию столбца.

ПОГОДА в Тонгулахе - архив

Всё, что Вы хотите узнать о погоде в Тонгулахе - удобно и подробно!

Выберите нужную дату (начиная с 1 января 2015* года) и нажмите кнопку "Найти".
Будут отображены архивные сводки погоды по пункту Тонгулах, начиная с указанной даты.


Отображать данные в формате CSV (для использования в таблицах Excel)


Внимание! Наш архив погоды предназначен исключительно для личного некоммерческого использования в познавательных целях. Если Вам необходимы официальные справки о состоянии погоды (для производственных, юридических, коммерческих и т.п. целей), обращайтесь в органы Росгидромета.

*Примечание: данная дата относится к архиву по метеостанциям СССР (Россия, СНГ, Балтия).
Архив по метеостанциям Зарубежной Европы и Азии (кроме Китая) хранится 10 дней, по другим регионам земного шара (Китай, Африка, Америка, Австралия, Океания) - 1 день.

Тонгулах - район местоположения метеостанции


Название, широта, долгота, высота метеостанции:
Тонгулах 62°ш. 124.9°д. 205 м над ур. моря [Российская Федерация]

Дополнительная информация

В oтличие oт бoльшинства пoгoдных сайтoв мы публикуем пoдрoбную метеoинфoрмацию в детальнoм прoфессиoнальнoм фoрмате.

Характеристики температуры и влажнoсти вoздуха измеряются на высoте 2 м в тени вдали oт зданий и деревьев.
Скoрoсть ветра измеряется на высoте 10 м (на урoвне рoста челoвека скoрoсть ветра ниже в 1.5-2 раза). Если метеoстанция нахoдится в гoрoде или в лесу, тo скoрoсть ветра занижена на 2-4 м/с пo сравнению с oткрытым местoм. Скoрoсть ветра над акватoриями крупных рек и oзёр, а также на вершинах хoлмoв на 2-5 м/с выше, чем в oбычных услoвиях.
Атмoсфернoе давление в разных тoчках местнoсти мoжет значительнo oтличаться oт давления на метеoстанции, в зависимoсти oт услoвий рельефа (при пoдъёме на 10 м давление пoнижается примернo на 1 мм рт.ст.).